Regional Weather Roundup
Issued by NWS

Home | Current Version | Previous Version | Graphics & Text | Print | Product List | Glossary On
Versions: 1 2 3 4 5 6 7 8 9 10 11 12 13 14 15 16 17 18 19 20 21 22 23 24 25 26 27 28 29 30 31 32 33 34 35 36 37 38 39 40 41 42 43 44 45 46 47 48 49 50
000
ASUS45 KCYS 011410
RWRWY

WYOMING REGIONAL WEATHER ROUNDUP
NATIONAL WEATHER SERVICE CHEYENNE WY
700 AM MST SUN MAR 01 2015

NOTE:  "FAIR" INDICATES FEW OR NO CLOUDS BELOW 12,000 FEET
WITH NO SIGNIFICANT WEATHER AND/OR OBSTRUCTIONS TO VISIBILITY.

WYZ001-011500-
YELLOWSTONE NATIONAL PARK

CITY           SKY/WX    TMP DP  RH WIND       PRES   REMARKS
LK YELLOWSTONE   N/A    -19 -24  77 CALM      30.11R
W YELLOWSTONE  NOT AVBL

$$
WYZ002>013-054>058-071-098>099-011500-
NORTHERN WYOMING

CITY           SKY/WX    TMP DP  RH WIND       PRES   REMARKS
JACKSON        CLEAR     -2  -6  84 N8        30.13S WCI -17
CODY           FAIR       7   3  85 CALM      30.20R
GREYBULL       FAIR      10   6  84 CALM      30.27R
WORLAND        FAIR      14   8  77 N3        30.25R
SHERIDAN       FAIR       4  -1  80 CALM      30.23R
BUFFALO        FAIR       5  -2  72 SW7       30.18R WCI  -7
GILLETTE       FAIR       7   3  84 W7        30.20R WCI  -5
HULETT         CLOUDY    14   9  79 SW8       30.19R WCI   3
NEWCASTLE      FAIR       9   5  85 N8        30.21S WCI  -4

$$
WYZ014>020-022>026-101>103-011500-
CENTRAL WYOMING

CITY           SKY/WX    TMP DP  RH WIND       PRES   REMARKS
BIG PINEY      CLOUDY    10   5  80 E5        30.09R WCI   2
PINEDALE       FLURRIES   9   5  85 W3        30.09R
DUBOIS         FAIR       0  -4  85 NW8       30.06R WCI -15
LANDER         CLOUDY    15   6  67 SW7       30.15R WCI   5
RIVERTON       CLOUDY    17  11  77 CALM      30.17R
CASPER         CLOUDY    10   5  80 SW6       30.17R WCI   0
DOUGLAS        CLOUDY    11   8  88 CALM      30.19R

$$
WYZ021-027>030-104>119-011500-
SOUTHERN WYOMING

CITY           SKY/WX    TMP DP  RH WIND       PRES   REMARKS
EVANSTON       CLOUDY    18  15  88 E14       30.02R WCI   4
FORT BRIDGER   CLOUDY    16  15  95 N5        30.08S WCI   9
ROCK SPRINGS   FAIR       6   2  83 E6        30.10R WCI  -4
DIXON          CLOUDY    17  13  86 W7        30.11R WCI   7
RAWLINS        CLOUDY     9   4  80 CALM      30.09R
SARATOGA       LGT SNOW   9   5  85 W3        30.08R
LARAMIE        CLOUDY     5   2  87 NE5       30.05R WCI  -4
CHEYENNE       CLOUDY    11   7  84 CALM      30.10R FOG
TORRINGTON     FAIR      16  11  80 NW5       30.21R WCI   9
PINE BLUFFS    CLOUDY    16  14  93 N8        30.16R WCI   5

$$



USA.gov is the U.S. government's official web portal to all federal, state and local government web resources and services.